Location: Caltech
(34.1382°N, 118.1253°W)
Time: 07:57:10
(UTC-07:00)

Iridium 91 - Visible Passes

Search period start: 30 July 2016 00:00
Search period end: 09 August 2016 00:00
Orbit: 776 x 779 km, 86.4° (Epoch: 30 July)

Date Brightness Start Highest point End Pass type
(mag) Time Alt. Az. Time Alt. Az. Time Alt. Az.
30 Jul 8.2 21:15:52 10° NW 21:19:28 19° W 21:23:02 10° SW visible
31 Jul 7.2 20:41:25 10° NNW 20:46:10 36° W 20:50:54 10° SSW visible
02 Aug 8.5 21:17:12 10° NW 21:19:21 13° W 21:21:30 10° WSW visible
03 Aug 8.0 20:41:59 10° NNW 20:46:08 25° W 20:50:17 10° SW visible
04 Aug 6.8 20:07:49 10° NNW 20:12:49 47° W 20:17:47 10° SSW visible
06 Aug 8.4 20:42:52 10° NW 20:46:04 17° W 20:49:16 10° WSW visible
07 Aug 7.6 20:08:14 10° NNW 20:12:49 32° W 20:17:22 10° SW visible
